GW4245 Weather Reports


Display with metric or nautical units.
time (UTC)temp
F
wind
direction
speed
MPH
gust
MPH
rain 1hr
in
rain 24hr
in
rain mn
in
humidity
%
barometer
mb
20260507101524 59 35 3.0 9.0 0.00 0.03 0.01 81 1011.5
20260507100028 60 360 3.0 8.0 0.00 0.03 0.01 81 1011.4
20260507094513 60 30 4.0 12.0 0.00 0.03 0.01 80 1011.4
20260507093015 60 327 3.0 5.0 0.00 0.03 0.01 80 1011.5
20260507091524 61 331 3.0 8.0 0.00 0.03 0.01 80 1011.4
20260507090035 61 24 3.0 14.0 0.00 0.03 0.01 79 1010.9
20260507084533 63 29 3.0 13.0 0.01 0.03 0.01 79 1010.7
20260507083016 66 10 8.0 14.0 0.01 0.03 0.01 78 1010.7
20260507081520 67 68 0.0 0.0 0.01 0.03 0.01 81 1010.1
20260507080028 68 68 0.0 2.0 0.01 0.03 0.01 81 1010.2
20260507074538 68 11 0.0 2.0 0.00 0.02 0.00 80 1010.6
20260507073026 68 41 0.0 2.0 0.00 0.02 0.00 79 1010.6
20260507071518 69 257 0.0 8.0 0.00 0.02 0.00 79 1010.2
20260507070022 69 155 0.0 3.0 0.00 0.02 0.00 78 1009.7
20260507064532 69 316 0.0 2.0 0.00 0.02 0.00 77 1009.4
20260507063013 69 131 0.0 4.0 0.00 0.02 0.00 77 1009.1
20260507061518 70 155 1.0 7.0 0.00 0.02 0.00 77 1009.3
20260507060020 70 79 1.0 6.0 0.00 0.02 0.00 77 1009.6
20260507054504 70 98 0.0 4.0 0.00 0.02 0.00 76 1009.9
20260507053010 69 247 0.0 3.0 0.00 0.02 0.00 76 1010.2
20260507051519 69 62 0.0 2.0 0.00 0.02 0.00 77 1010.6
20260507050021 69 271 1.0 6.0 0.00 0.02 0.00 77 1010.8
20260507044523 68 67 0.0 2.0 0.00 0.02 0.00 77 1010.9
20260507043008 68 113 0.0 2.0 0.00 0.02 0.00 77 1011.0
20260507041513 68 97 0.0 2.0 0.00 0.02 0.00 77 1010.9
20260507040017 68 352 0.0 2.0 0.00 0.02 0.00 78 1010.8
20260507034534 67 79 0.0 2.0 0.00 0.02 0.02 78 1010.7
20260507033006 67 159 0.0 2.0 0.00 0.02 0.02 78 1010.8
20260507031512 67 281 0.0 3.0 0.00 0.02 0.02 78 1010.6
20260507030018 67 244 0.0 2.0 0.00 0.02 0.02 78 1010.6
20260507024531 67 202 0.0 3.0 0.00 0.02 0.02 78 1010.7
20260507023022 67 253 0.0 2.0 0.00 0.02 0.02 78 1011.0
20260507021508 67 273 0.0 2.0 0.00 0.02 0.02 78 1010.9
20260507020012 67 233 0.0 2.0 0.00 0.02 0.02 78 1010.9
20260507014532 67 190 0.0 2.0 0.00 0.02 0.02 77 1010.8
20260507013020 67 281 0.0 2.0 0.00 0.02 0.02 77 1010.9
20260507011537 68 267 0.0 2.0 0.00 0.02 0.02 76 1010.7
20260507010016 68 184 0.0 2.0 0.00 0.02 0.02 74 1011.0
20260507004517 69 184 0.0 0.0 0.00 0.02 0.02 74 1011.0
20260507003020 70 184 0.0 0.0 0.00 0.02 0.02 73 1011.0
20260507001528 71 184 0.0 0.0 0.00 0.02 0.02 72 1010.8
20260507000026 71 184 0.0 2.0 0.00 0.02 0.02 71 1010.5
20260506234516 72 185 0.0 2.0 0.00 0.02 0.02 70 1010.5
20260506233018 72 182 0.0 2.0 0.00 0.02 0.02 70 1010.4
20260506231525 73 234 0.0 2.0 0.00 0.02 0.02 69 1010.4
20260506230028 73 241 1.0 3.0 0.00 0.02 0.02 68 1010.3
20260506224528 73 288 0.0 3.0 0.00 0.02 0.02 69 1010.3
20260506223018 74 175 0.0 5.0 0.00 0.02 0.02 68 1010.3
20260506221523 74 139 1.0 4.0 0.00 0.02 0.02 67 1010.5
20260506220025 74 140 2.0 4.0 0.00 0.02 0.02 67 1010.7
20260506214527 74 31 0.0 6.0 0.00 0.02 0.02 67 1010.6
20260506213003 73 175 1.0 6.0 0.00 0.02 0.02 67 1010.6
20260506211504 73 276 3.0 10.0 0.00 0.02 0.02 68 1010.5
20260506210006 73 254 2.0 7.0 0.00 0.02 0.02 68 1010.5
20260506204509 73 53 2.0 5.0 0.00 0.02 0.02 68 1010.1
20260506203029 72 157 2.0 8.0 0.00 0.02 0.02 68 1010.2
20260506201502 72 174 1.0 3.0 0.00 0.02 0.02 70 1009.9
20260506200010 71 196 1.0 10.0 0.00 0.02 0.02 70 1010.1
20260506194506 70 205 1.0 5.0 0.00 0.02 0.02 71 1010.2
20260506193011 70 227 2.0 8.0 0.00 0.02 0.02 72 1010.5
20260506191514 70 163 1.0 4.0 0.00 0.02 0.02 73 1010.9
20260506190004 70 254 0.0 4.0 0.00 0.02 0.02 72 1011.5
20260506184516 70 173 1.0 7.0 0.00 0.02 0.02 71 1011.8
20260506183010 70 177 3.0 9.0 0.00 0.02 0.02 70 1012.0
20260506181514 70 196 2.0 7.0 0.00 0.02 0.02 72 1012.1
20260506180032 69 181 1.0 9.0 0.00 0.02 0.02 71 1012.3
20260506174505 69 185 1.0 7.0 0.00 0.02 0.02 71 1012.2
20260506173008 69 196 1.0 8.0 0.00 0.02 0.02 71 1012.1
20260506171532 68 349 3.0 9.0 0.00 0.02 0.02 71 1012.2
20260506170029 67 243 1.0 9.0 0.00 0.02 0.02 74 1012.3
20260506164523 67 179 3.0 6.0 0.00 0.02 0.02 74 1012.5
20260506163008 66 176 3.0 9.0 0.00 0.02 0.02 75 1012.6
20260506161512 66 198 3.0 8.0 0.01 0.02 0.02 75 1013.2
20260506160018 66 186 3.0 8.0 0.02 0.02 0.02 76 1013.3
20260506154521 66 265 1.0 5.0 0.02 0.02 0.02 75 1013.7
20260506153032 66 181 1.0 3.0 0.02 0.02 0.02 74 1014.1
20260506151510 67 186 1.0 5.0 0.01 0.01 0.01 72 1014.0
20260506150014 68 162 2.0 5.0 0.00 0.00 0.00 71 1014.3
20260506144535 68 134 1.0 6.0 0.00 0.00 0.00 70 1014.2
20260506143028 68 226 1.0 4.0 0.00 0.00 0.00 69 1013.8
20260506141506 67 159 1.0 5.0 0.00 0.00 0.00 69 1013.6
20260506140011 67 168 0.0 6.0 0.00 0.00 0.00 69 1013.7
20260506134516 67 258 1.0 3.0 0.00 0.00 0.00 69 1013.7
20260506133028 68 119 1.0 7.0 0.00 0.00 0.00 69 1013.4
20260506131533 69 180 4.0 8.0 0.00 0.00 0.00 67 1013.7
20260506130026 69 137 2.0 7.0 0.00 0.00 0.00 67 1013.6
20260506124526 69 197 3.0 10.0 0.00 0.00 0.00 67 1013.4
20260506123004 68 146 3.0 15.0 0.00 0.00 0.00 67 1013.5
20260506121521 67 194 3.0 6.0 0.00 0.00 0.00 69 1013.7
20260506120011 66 183 3.0 12.0 0.00 0.00 0.00 70 1013.8
20260506114517 65 196 2.0 8.0 0.00 0.00 0.00 70 1013.6
20260506113003 65 151 1.0 5.0 0.00 0.00 0.00 70 1014.0
20260506111506 64 296 1.0 7.0 0.00 0.00 0.00 71 1013.8